User: anonymous   Login
Location: Unspecified
(52.4292°N, 19.3359°E)
Time: 14:35:25
(UTC+02:00)
Language:

Transit 4A - Orbit

View from above orbital plane
View from above orbital plane
View from above satellite
View from above satellite

Ground track
Ground track

The orbit data is extracted from the following two-line orbital elements,

1 00116U 61015A   24138.77902961  .00000240  00000-0  24322-3 0  9992
2 00116  66.8098 311.1285 0068549  85.8017 275.0893 13.92039246190855
Epoch (UTC): 17 May 2024 18:41:48
Eccentricity: 0.0068549
inclination: 66.8098°
perigee height: 871 km
apogee height: 971 km
right ascension of ascending node: 311.1285°
argument of perigee: 85.8017°
revolutions per day: 13.92039246
mean anomaly at epoch: 275.0893°
orbit number at epoch: 19085

The dashed part of the orbit path shows where the satellite is in the earth's shadow,  

DLR